�������l�o���
Date,Time,MP-1(��Sv/h),MP-2(��Sv/h),MP-3(��Sv/h),MP-4(��Sv/h),MP-5(��Sv/h),MP-6(��Sv/h),MP-7(��Sv/h),MP-8(��Sv/h),����,����(m/s),���J
2016/10/10,00:00,1.137,1.890,1.350,2.081,1.455,0.596,1.060,0.977,�k��,5.6,��
2016/10/10,00:10,1.136,1.892,1.348,2.082,1.451,0.596,1.062,0.975,�k��,5.8,��
2016/10/10,00:20,1.136,1.891,1.349,2.083,1.455,0.596,1.061,0.978,�k��,4.9,��
2016/10/10,00:30,1.134,1.891,1.346,2.083,1.458,0.598,1.061,0.978,�k��,6.0,��
2016/10/10,00:40,1.137,1.890,1.348,2.083,1.452,0.598,1.060,0.977,�k��,6.9,��
2016/10/10,00:50,1.138,1.889,1.350,2.085,1.454,0.598,1.061,0.978,�k��,6.3,��
2016/10/10,01:00,1.137,1.888,1.352,2.083,1.454,0.597,1.060,0.977,�k��,5.0,��
2016/10/10,01:10,1.137,1.891,1.349,2.083,1.456,0.598,1.061,0.977,�k�k��,4.7,��
2016/10/10,01:20,1.136,1.890,1.348,2.082,1.456,0.598,1.061,0.978,�k,4.9,��
2016/10/10,01:30,1.136,1.892,1.348,2.083,1.456,0.596,1.062,0.978,�k,5.2,��
2016/10/10,01:40,1.136,1.893,1.350,2.085,1.455,0.596,1.061,0.980,�k�k��,4.7,��
2016/10/10,01:50,1.137,1.894,1.350,2.085,1.456,0.595,1.061,0.977,�k,3.9,��
2016/10/10,02:00,1.138,1.891,1.350,2.083,1.456,0.594,1.059,0.978,�k,3.6,��
2016/10/10,02:10,1.137,1.892,1.349,2.084,1.455,0.595,1.062,0.978,�k�k��,3.2,��
2016/10/10,02:20,1.136,1.892,1.349,2.085,1.457,0.597,1.061,0.978,�k�k��,3.4,��
2016/10/10,02:30,1.135,1.892,1.345,2.082,1.455,0.597,1.058,0.976,�k�k��,4.5,��
2016/10/10,02:40,1.136,1.895,1.349,2.084,1.458,0.596,1.060,0.980,�k��,3.9,��
2016/10/10,02:50,1.137,1.893,1.345,2.082,1.456,0.597,1.060,0.978,�k��,4.6,��
2016/10/10,03:00,1.135,1.892,1.351,2.082,1.457,0.596,1.060,0.979,�k��,5.5,��
2016/10/10,03:10,1.133,1.892,1.348,2.082,1.455,0.598,1.060,0.979,�k��,4.4,��
2016/10/10,03:20,1.137,1.892,1.348,2.085,1.456,0.597,1.060,0.979,�k��,4.9,��
2016/10/10,03:30,1.137,1.893,1.350,2.084,1.455,0.597,1.062,0.976,�k��,4.6,��
2016/10/10,03:40,1.137,1.892,1.350,2.085,1.458,0.596,1.058,0.978,�k��,4.1,��
2016/10/10,03:50,1.136,1.890,1.347,2.084,1.458,0.596,1.059,0.978,�k��,4.4,��
2016/10/10,04:00,1.135,1.892,1.349,2.086,1.455,0.595,1.061,0.979,�k��,4.2,��
2016/10/10,04:10,1.135,1.890,1.347,2.087,1.458,0.597,1.059,0.979,�k��,4.9,��
2016/10/10,04:20,1.136,1.894,1.347,2.084,1.455,0.597,1.061,0.978,�k��,5.2,��
2016/10/10,04:30,1.136,1.890,1.347,2.086,1.457,0.595,1.060,0.978,�k��,5.5,��
2016/10/10,04:40,1.136,1.894,1.352,2.083,1.456,0.596,1.059,0.975,�k��,6.1,��
2016/10/10,04:50,1.136,1.892,1.350,2.084,1.457,0.595,1.057,0.979,�k��,5.2,��
2016/10/10,05:00,1.135,1.892,1.348,2.084,1.456,0.597,1.059,0.976,�k��,4.1,��
2016/10/10,05:10,1.136,1.892,1.348,2.084,1.457,0.596,1.059,0.980,�k��,3.4,��
2016/10/10,05:20,1.135,1.894,1.349,2.084,1.460,0.597,1.058,0.979,�k��,3.9,��
2016/10/10,05:30,1.134,1.895,1.349,2.086,1.455,0.597,1.058,0.979,�k��,3.4,��
2016/10/10,05:40,1.136,1.891,1.348,2.086,1.456,0.595,1.058,0.978,�k��,4.1,��
2016/10/10,05:50,1.135,1.893,1.348,2.085,1.456,0.597,1.059,0.978,�k��,3.6,��
2016/10/10,06:00,1.136,1.894,1.349,2.086,1.456,0.596,1.058,0.977,�k��,3.8,��
2016/10/10,06:10,1.138,1.892,1.348,2.088,1.456,0.596,1.056,0.978,�k��,3.8,��
2016/10/10,06:20,1.136,1.891,1.349,2.087,1.457,0.596,1.058,0.978,�k��,2.5,��
2016/10/10,06:30,1.137,1.891,1.346,2.085,1.456,0.598,1.058,0.979,�k�k��,2.6,��
2016/10/10,06:40,1.136,1.893,1.351,2.084,1.456,0.597,1.060,0.977,�k��,3.2,��
2016/10/10,06:50,1.136,1.892,1.349,2.087,1.455,0.596,1.059,0.978,�k��,2.9,��
2016/10/10,07:00,1.135,1.890,1.349,2.082,1.454,0.595,1.058,0.979,�k��,3.0,��
2016/10/10,07:10,1.134,1.892,1.349,2.083,1.453,0.595,1.059,0.978,�k��,2.8,��
2016/10/10,07:20,1.138,1.896,1.348,2.085,1.458,0.597,1.059,0.979,�k��,2.5,��
2016/10/10,07:30,1.136,1.896,1.347,2.086,1.454,0.597,1.059,0.978,�k�k��,2.1,��
2016/10/10,07:40,1.137,1.892,1.349,2.084,1.454,0.596,1.060,0.980,�k��,2.3,��
2016/10/10,07:50,1.135,1.891,1.349,2.086,1.457,0.596,1.059,0.978,�k�k��,2.6,��
2016/10/10,08:00,1.136,1.891,1.349,2.086,1.458,0.597,1.059,0.979,�k�k��,2.3,��
2016/10/10,08:10,1.137,1.887,1.351,2.089,1.458,0.596,1.059,0.979,�k,2.5,��
2016/10/10,08:20,1.138,1.896,1.352,2.084,1.457,0.597,1.059,0.978,�k,3.2,��
2016/10/10,08:30,1.138,1.897,1.352,2.085,1.457,0.595,1.059,0.979,�k,3.0,��
2016/10/10,08:40,1.138,1.892,1.354,2.089,1.462,0.597,1.058,0.978,�k�k��,2.9,��
2016/10/10,08:50,1.138,1.895,1.353,2.087,1.459,0.597,1.058,0.979,�k�k��,2.5,��
2016/10/10,09:00,1.139,1.898,1.353,2.084,1.457,0.596,1.058,0.978,�k�k��,2.7,��
2016/10/10,09:10,1.141,1.896,1.348,2.089,1.458,0.597,1.060,0.978,�k�k��,2.4,��
2016/10/10,09:20,1.141,1.897,1.353,2.090,1.462,0.596,1.058,0.978,�k,2.6,��
2016/10/10,09:30,1.141,1.896,1.354,2.087,1.458,0.597,1.059,0.978,�k�k��,5.0,��
2016/10/10,09:40,1.139,1.889,1.354,2.088,1.461,0.596,1.059,0.977,�k�k��,4.7,��
2016/10/10,09:50,1.139,1.889,1.351,2.089,1.458,0.596,1.059,0.978,�k�k��,4.1,��
2016/10/10,10:00,1.139,1.885,1.351,2.091,1.454,0.595,1.060,0.976,�k�k��,4.4,��
2016/10/10,10:10,1.141,1.895,1.354,2.090,1.459,0.594,1.061,0.977,�k,2.9,��
2016/10/10,10:20,1.141,1.895,1.352,2.092,1.458,0.595,1.061,0.976,�k�k��,4.1,��
2016/10/10,10:30,1.140,1.896,1.353,2.093,1.460,0.594,1.060,0.977,�k��,5.2,��
2016/10/10,10:40,1.141,1.896,1.353,2.089,1.458,0.595,1.062,0.977,�k�k��,4.2,��
2016/10/10,10:50,1.142,1.900,1.353,2.091,1.462,0.595,1.060,0.979,�k��,4.7,��
2016/10/10,11:00,1.144,1.898,1.352,2.095,1.462,0.595,1.063,0.977,�k�k��,4.6,��
2016/10/10,11:10,1.141,1.901,1.356,2.092,1.461,0.597,1.061,0.976,�k��,4.9,��
2016/10/10,11:20,1.142,1.899,1.357,2.095,1.459,0.596,1.061,0.978,�k�k��,4.7,��
2016/10/10,11:30,1.145,1.900,1.353,2.095,1.465,0.596,1.060,0.978,�k�k��,4.4,��
2016/10/10,11:40,1.144,1.900,1.354,2.096,1.462,0.595,1.061,0.978,�k�k��,5.6,��
2016/10/10,11:50,1.143,1.901,1.354,2.096,1.462,0.596,1.065,0.976,�k��,5.2,��
2016/10/10,12:00,1.142,1.901,1.356,2.093,1.465,0.597,1.060,0.980,�k��,5.2,��
2016/10/10,12:10,1.142,1.903,1.355,2.095,1.468,0.596,1.061,0.978,�k��,5.3,��
2016/10/10,12:20,1.143,1.905,1.356,2.094,1.466,0.596,1.060,0.976,�k��,5.2,��
2016/10/10,12:30,1.146,1.906,1.357,2.098,1.467,0.597,1.062,0.977,�k�k��,5.6,��
2016/10/10,12:40,1.144,1.905,1.359,2.098,1.464,0.597,1.064,0.978,�k��,6.0,��
2016/10/10,12:50,1.141,1.900,1.357,2.094,1.469,0.596,1.062,0.979,�k��,5.5,��
2016/10/10,13:00,1.144,1.899,1.358,2.095,1.465,0.595,1.064,0.978,�k�k��,5.8,��
2016/10/10,13:10,1.143,1.902,1.358,2.096,1.465,0.599,1.063,0.976,�k�k��,5.8,��
2016/10/10,13:20,1.142,1.903,1.360,2.095,1.467,0.598,1.062,0.978,�k�k��,6.0,��
2016/10/10,13:30,1.145,1.907,1.356,2.096,1.468,0.595,1.062,0.976,�k�k��,5.5,��
2016/10/10,13:40,1.145,1.906,1.358,2.096,1.466,0.599,1.062,0.978,�k��,5.8,��
2016/10/10,13:50,1.143,1.907,1.359,2.097,1.467,0.598,1.063,0.977,�k��,5.5,��
2016/10/10,14:00,1.142,1.905,1.356,2.095,1.467,0.597,1.062,0.978,�k�k��,4.9,��
2016/10/10,14:10,1.144,1.905,1.357,2.096,1.466,0.596,1.062,0.976,�k��,5.0,��
2016/10/10,14:20,1.144,1.905,1.356,2.096,1.462,0.598,1.062,0.978,�k�k��,4.4,��
2016/10/10,14:30,1.143,1.905,1.356,2.095,1.467,0.595,1.064,0.977,�k��,4.1,�L
2016/10/10,14:40,1.144,1.905,1.359,2.095,1.466,0.598,1.061,0.978,�k�k��,4.5,��
2016/10/10,14:50,1.144,1.907,1.362,2.098,1.466,0.598,1.063,0.978,�k��,4.5,��
2016/10/10,15:00,1.146,1.904,1.361,2.094,1.465,0.598,1.061,0.978,�k�k��,4.6,��
2016/10/10,15:10,1.146,1.905,1.363,2.096,1.468,0.598,1.060,0.979,�k�k��,3.9,��
2016/10/10,15:20,1.145,1.909,1.359,2.096,1.469,0.598,1.061,0.978,�k��,4.4,��
2016/10/10,15:30,1.147,1.909,1.361,2.094,1.470,0.598,1.062,0.979,�k��,4.6,��
2016/10/10,15:40,1.148,1.911,1.363,2.096,1.471,0.597,1.062,0.977,�k��,3.5,��
2016/10/10,15:50,1.148,1.910,1.361,2.094,1.470,0.599,1.062,0.979,�k��,3.5,��
2016/10/10,16:00,1.150,1.915,1.364,2.098,1.470,0.598,1.062,0.978,�k��,2.9,��
2016/10/10,16:10,1.148,1.910,1.361,2.098,1.469,0.599,1.060,0.981,�k�k��,2.8,��
2016/10/10,16:20,1.147,1.909,1.361,2.097,1.470,0.599,1.061,0.981,�k�k��,3.2,��
2016/10/10,16:30,1.147,1.912,1.361,2.098,1.474,0.600,1.062,0.977,�k��,2.4,��
2016/10/10,16:40,1.147,1.913,1.364,2.093,1.470,0.598,1.061,0.977,�k�k��,2.2,��
2016/10/10,16:50,1.147,1.914,1.362,2.095,1.471,0.599,1.061,0.980,�k��,1.7,��
2016/10/10,17:00,1.149,1.910,1.363,2.097,1.470,0.598,1.061,0.980,�k�k��,2.6,��
2016/10/10,17:10,1.146,1.914,1.361,2.097,1.469,0.599,1.062,0.981,�k�k��,2.4,��
2016/10/10,17:20,1.148,1.912,1.363,2.095,1.470,0.597,1.061,0.980,�k��,1.4,��
2016/10/10,17:30,1.146,1.912,1.360,2.098,1.472,0.600,1.060,0.980,�k�k��,1.0,��
2016/10/10,17:40,1.146,1.913,1.363,2.097,1.470,0.597,1.064,0.982,�k�k��,1.2,��
2016/10/10,17:50,1.148,1.911,1.361,2.098,1.470,0.599,1.061,0.982,�k��,1.1,��
2016/10/10,18:00,1.147,1.911,1.361,2.097,1.471,0.597,1.060,0.983,�k��,0.8,��
2016/10/10,18:10,1.146,1.910,1.359,2.098,1.471,0.598,1.063,0.980,���k��,0.6,��
2016/10/10,18:20,1.147,1.911,1.360,2.098,1.471,0.599,1.060,0.980,���k��,1.0,��
2016/10/10,18:30,1.147,1.911,1.359,2.098,1.472,0.598,1.063,0.980,�k��,1.6,��
2016/10/10,18:40,1.147,1.909,1.359,2.098,1.470,0.599,1.064,0.981,�k��,1.9,��
2016/10/10,18:50,1.147,1.910,1.361,2.096,1.470,0.597,1.062,0.981,�k��,1.7,��
2016/10/10,19:00,1.147,1.906,1.361,2.097,1.471,0.599,1.065,0.980,�k��,2.0,��
2016/10/10,19:10,1.145,1.911,1.359,2.095,1.472,0.599,1.065,0.980,�k�k��,1.2,��
2016/10/10,19:20,1.146,1.912,1.359,2.096,1.472,0.598,1.061,0.980,�k��,1.3,��
2016/10/10,19:30,1.146,1.910,1.362,2.097,1.471,0.600,1.062,0.980,�k��,1.9,��
2016/10/10,19:40,1.147,1.909,1.358,2.094,1.471,0.598,1.062,0.980,�k��,1.8,��
2016/10/10,19:50,1.146,1.909,1.359,2.098,1.471,0.597,1.063,0.980,�k��,1.8,��
2016/10/10,20:00,1.142,1.911,1.360,2.094,1.472,0.598,1.063,0.979,�k��,2.2,��
2016/10/10,20:10,1.146,1.909,1.357,2.097,1.470,0.599,1.062,0.980,���k��,2.0,��
2016/10/10,20:20,1.146,1.908,1.360,2.097,1.470,0.597,1.062,0.981,�k��,2.2,��
2016/10/10,20:30,1.147,1.911,1.359,2.094,1.471,0.597,1.063,0.980,�k��,1.7,��
2016/10/10,20:40,1.143,1.909,1.358,2.097,1.471,0.598,1.063,0.981,���k��,2.2,��
2016/10/10,20:50,1.146,1.910,1.361,2.097,1.470,0.596,1.063,0.980,���k��,2.8,��
2016/10/10,21:00,1.144,1.908,1.357,2.098,1.472,0.596,1.064,0.979,���k��,2.7,��
2016/10/10,21:10,1.146,1.907,1.358,2.096,1.470,0.598,1.063,0.982,���k��,2.5,��
2016/10/10,21:20,1.145,1.910,1.357,2.098,1.468,0.600,1.064,0.980,-,CALM,��
2016/10/10,21:30,1.146,1.909,1.360,2.098,1.468,0.598,1.063,0.981,�k�k��,3.8,��
2016/10/10,21:40,1.144,1.909,1.359,2.098,1.469,0.599,1.063,0.980,�k�k��,5.6,��
2016/10/10,21:50,1.148,1.910,1.360,2.098,1.470,0.597,1.063,0.981,�k�k��,6.3,��
2016/10/10,22:00,1.147,1.910,1.356,2.095,1.471,0.599,1.062,0.981,�k�k��,5.6,��
2016/10/10,22:10,1.146,1.910,1.360,2.100,1.469,0.597,1.062,0.982,�k�k��,5.3,��
2016/10/10,22:20,1.144,1.907,1.362,2.096,1.469,0.597,1.063,0.981,�k�k��,5.6,��
2016/10/10,22:30,1.146,1.909,1.360,2.100,1.468,0.598,1.062,0.981,�k��,5.6,��
2016/10/10,22:40,1.145,1.911,1.362,2.097,1.470,0.597,1.065,0.980,�k��,4.9,��
2016/10/10,22:50,1.145,1.909,1.360,2.097,1.470,0.598,1.062,0.981,�k��,3.3,��
2016/10/10,23:00,1.146,1.910,1.362,2.097,1.468,0.597,1.063,0.980,�k��,4.6,��
2016/10/10,23:10,1.145,1.907,1.361,2.096,1.471,0.597,1.063,0.980,�k�k��,5.5,��
2016/10/10,23:20,1.146,1.909,1.360,2.098,1.470,0.598,1.062,0.980,�k�k��,4.4,��
2016/10/10,23:30,1.144,1.908,1.360,2.094,1.470,0.597,1.063,0.981,�k��,5.5,��
2016/10/10,23:40,1.147,1.910,1.361,2.096,1.470,0.597,1.064,0.979,�k��,5.8,��
2016/10/10,23:50,1.143,1.909,1.360,2.098,1.469,0.599,1.063,0.981,�k��,6.1,��
